Probability
0 0 0 0 0 0 0 0 0 0 0 0 0 0 0 0 0 0 0 0 0 0 0 0 0 0 1 1 1 0 0 0 0 0 0 0 0 0 0 0 0 0 0 0
0 0 0 0 0 0 0 0 0 0 0 0 0 0 0 0 0 0 0 0 0 0 0 0 0 1 1 1 0 0 0 0 0 0 0 0 0 0 0 0 0 0 0 0
0 0 0 0 0 0 0 0 0 0 0 0 0 0 0 0 0 0 0 0 0 0 0 0 0 1 1 0 0 0 0 0 0 0 0 0 0 0 0 0 0 0 0 0
0 0 0 0 0 0 0 0 0 0 0 0 0 0 0 0 0 0 0 0 0 0 0 0 0 0 0 0 0 0 0 0 0 0 0 0 0 0 0 0 0 0 0 0
0 0 0 0 0 0 0 0 0 0 0 0 0 0 0 0 0 0 0 0 0 0 0 0 0 0 0 0 0 0 0 0 0 0 0 0 0 0 0 0 0 0 0 0
0 0 0 0 0 0 0 0 0 0 0 0 0 0 0 0 0 0 0 0 0 0 0 0 0 0 0 0 0 0 0 0 0 0 0 0 0 0 0 0 0 0 0 0
0 0 0 0 0 0 0 0 0 0 0 0 0 0 0 0 0 0 0 0 0 0 0 0 0 0 0 0 0 0 0 0 0 0 0 0 0 0 0 0 0 0 0 0
0 0 0 0 0 0 0 0 0 0 0 0 0 0 0 0 0 0 0 0 0 0 0 0 0 0 0 0 0 0 0 0 0 0 0 0 0 0 0 0 0 0 0 0
0 0 0 0 0 0 0 0 0 0 0 0 0 0 0 0 0 0 0 0 0 0 0 0 0 0 0 0 0 0 0 0 0 0 0 0 0 0 0 0 0 0 0 0
0 0 0 0 0 0 0 0 0 0 0 0 0 0 0 0 0 0 0 0 0 0 0 0 0 0 0 0 0 0 0 0 0 0 0 0 0 0 0 0 0 0 0 0
0 0 0 0 0 0 0 0 0 0 0 0 0 0 0 0 0 0 0 0 0 0 0 0 0 0 0 0 0 0 0 0 0 0 0 0 0 0 0 0 0 0 0 0
0 0 0 0 0 0 0 0 0 0 0 0 0 0 0 0 0 0 0 0 0 0 0 0 0 0 0 0 0 0 0 0 0 0 0 0 0 0 0 0 0 0 0 0
0 0 0 0 0 0 0 0 0 0 0 0 0 0 0 0 0 0 0 0 0 0 0 0 0 0 0 0 0 0 0 0 0 0 0 0 0 0 0 0 0 0 0 0
0 0 0 0 0 0 0 0 0 0 0 0 0 0 0 0 0 0 0 0 0 0 0 0 0 0 0 0 0 0 0 0 0 0 0 0 0 0 0 0 0 0 0 0
0 0 0 0 0 0 0 0 0 0 0 0 0 0 0 0 0 0 0 0 0 0 0 0 0 0 0 0 0 0 0 0 0 0 0 0 0 0 0 0 0 0 0 0
0 0 0 0 0 0 0 0 0 0 0 0 0 0 0 0 0 0 0 0 0 0 0 0 0 0 0 0 0 0 0 0 0 0 0 0 0 0 0 0 0 0 0 0
0 0 0 0 0 0 0 0 0 0 0 0 0 0 0 0 0 0 0 0 0 0 0 0 0 0 0 0 0 0 0 0 0 0 0 0 0 0 0 0 0 0 0 0
0 0 0 0 0 0 0 0 0 0 0 0 0 0 0 0 0 0 0 0 0 0 0 0 0 0 0 0 0 0 0 0 0 0 0 0 0 0 0 0 0 0 0 0
0 0 0 0 0 0 0 0 0 0 0 0 0 0 0 0 0 0 0 0 0 0 0 0 0 0 0 0 0 0 0 0 0 0 0 0 0 0 0 0 0 0 0 0
0 0 0 0 0 0 0 0 0 0 0 0 0 0 0 0 0 0 0 0 0 0 0 0 0 0 0 0 0 0 0 0 0 0 0 0 0 0 0 0 0 0 0 0
0 0 0 0 0 0 0 0 0 0 0 0 0 0 0 0 0 0 0 0 0 0 0 0 0 0 0 0 0 0 0 0 0 0 0 0 0 0 0 0 0 0 0 0
0 0 0 0 0 0 0 0 0 0 0 0 0 0 0 0 0 0 0 0 0 0 0 0 0 0 0 0 0 0 0 0 0 0 0 0 0 0 0 0 0 0 0 0
0 0 0 0 0 0 0 0 0 0 0 0 0 0 0 0 0 0 0 0 0 0 0 0 0 0 0 0 0 0 0 0 0 0 0 0 0 0 0 0 0 0 0 0
0 0 0 0 0 0 0 0 0 0 0 0 0 0 0 0 0 0 0 0 0 0 0 0 0 0 0 0 0 0 0 0 0 0 0 0 0 0 0 0 0 0 0 0
0 0 0 0 0 0 0 0 0 0 0 0 0 0 0 0 0 0 0 0 0 0 0 0 0 0 0 0 0 0 0 0 0 0 0 0 0 0 0 0 0 0 0 0
0 0 0 0 0 0 0 0 0 0 0 0 0 0 0 0 0 0 0 0 0 0 0 0 0 0 0 0 0 0 0 0 0 0 0 0 0 0 0 0 0 0 0 0
Wind_Speed
3 5 1 3 3 2 2 2 3 4 2 2 5 10 13 8 5 7 7 6 7 7 6 3 3 3 3 3 4 4 4 4 3 2 2 2 2 2 2 2 2 3 3 3
5 1 3 1 2 2 2 1 2 3 2 2 5 10 10 6 5 6 6 6 6 6 4 3 2 2 3 4 4 4 5 4 4 3 2 2 2 2 2 2 2 2 3 3
4 2 1 3 3 2 1 3 3 3 5 2 4 8 5 4 3 3 4 4 4 4 4 3 2 2 2 3 4 4 5 4 4 3 2 1 1 0 1 1 2 2 3 3
1 1 2 2 1 3 3 2 2 1 2 4 3 6 8 4 6 4 4 4 4 4 3 2 2 2 2 3 3 3 3 3 3 4 3 3 3 3 3 2 2 2 2 2
1 0 2 2 2 3 2 1 1 0 0 2 1 2 10 4 5 6 5 4 4 4 3 2 2 3 2 2 2 2 2 2 3 3 4 4 3 3 2 1 2 2 2 2
1 1 1 2 1 2 2 2 3 3 3 3 2 3 9 4 5 5 4 4 4 4 3 2 1 1 1 1 0 0 1 1 1 2 3 4 4 3 3 3 3 2 2 2
2 1 0 1 3 2 2 4 4 5 4 6 1 3 11 7 5 4 5 5 4 3 2 2 1 1 1 1 1 1 0 1 1 2 3 4 5 5 5 5 4 3 2 2
2 4 2 1 3 4 2 4 6 4 5 6 2 7 9 5 4 4 4 4 3 2 2 1 1 1 1 1 1 1 1 2 1 2 3 3 3 4 4 4 4 3 3 3
5 4 1 1 0 4 3 2 2 4 0 3 6 7 10 3 3 2 3 2 2 2 2 1 2 1 1 1 1 1 1 2 2 2 2 2 2 3 3 3 3 3 3 2
5 3 1 0 1 1 1 4 4 4 2 5 7 6 6 4 4 2 2 2 3 2 2 2 2 2 2 2 2 1 1 2 2 2 1 1 2 2 2 2 2 3 3 2
3 4 1 0 4 6 3 3 3 3 4 4 5 9 7 7 5 3 4 3 2 2 3 3 3 2 2 2 1 1 1 2 2 2 1 1 1 1 1 2 3 3 2 2
3 4 2 5 2 1 4 5 6 5 5 4 4 10 3 4 3 3 3 2 2 2 2 2 3 3 3 3 2 2 2 2 2 2 1 1 1 1 1 2 2 2 3 3
5 5 1 3 2 1 3 4 5 3 3 4 5 11 2 1 1 2 2 3 3 3 3 3 3 3 3 3 3 3 3 2 2 1 1 1 1 1 2 2 2 2 2 2
4 4 7 9 6 5 5 6 6 6 5 6 11 11 8 5 4 4 3 3 3 3 3 3 3 3 3 3 3 3 3 3 2 1 1 2 2 2 2 2 2 2 2 2
3 4 5 6 3 3 6 8 9 11 11 11 11 11 13 7 5 4 3 2 3 4 4 4 4 4 4 3 3 3 3 3 2 1 2 2 2 2 2 2 2 2 2 3
2 3 1 4 3 4 7 10 12 13 10 12 10 14 11 6 3 2 3 3 4 4 4 4 4 4 4 4 4 4 3 3 2 2 2 2 2 2 2 2 2 2 3 3
4 4 2 5 3 3 10 12 13 10 10 10 13 12 4 3 4 4 4 4 5 5 4 4 4 4 4 4 4 4 4 2 1 2 2 2 2 2 2 2 2 3 3 3
6 5 3 2 1 9 9 2 8 8 7 8 7 6 4 5 4 3 3 4 5 4 4 4 3 4 4 4 4 4 3 2 1 2 3 3 3 3 3 3 3 3 3 3
5 6 4 3 5 11 9 3 5 7 7 8 10 9 6 3 2 4 3 3 4 3 3 3 3 3 3 3 3 2 2 2 2 3 3 3 3 3 3 4 4 4 3 4
1 3 4 4 5 9 7 1 2 3 6 4 7 8 3 2 2 5 2 1 2 2 2 2 2 2 3 3 2 1 2 2 3 4 4 4 3 3 4 4 4 3 3 4
3 3 6 6 8 11 7 1 3 4 7 2 4 5 5 6 6 3 2 2 2 2 2 2 2 2 3 3 2 2 2 4 5 4 4 3 3 3 3 3 3 3 3 3
10 8 8 6 6 12 4 6 8 8 2 1 2 3 5 7 5 3 3 3 3 3 2 2 2 3 3 2 1 2 4 5 4 3 3 3 3 3 2 2 3 2 2 3
9 10 8 11 10 4 6 7 4 1 2 2 2 3 4 5 5 4 4 4 3 3 3 2 2 4 4 2 1 4 5 4 3 3 3 3 3 3 2 2 3 3 2 2
6 2 4 6 9 6 5 5 4 3 4 4 3 3 4 5 5 5 4 4 4 3 3 3 3 4 5 3 3 4 4 3 2 3 3 3 2 3 3 2 2 2 3 3
6 5 4 7 7 5 5 7 7 6 5 5 5 4 5 5 6 5 4 4 4 4 3 2 3 4 5 4 4 4 3 2 2 3 3 3 2 3 3 3 3 4 4 4
6 8 8 9 6 5 5 3 3 4 6 6 5 5 4 5 6 4 4 4 4 4 3 3 3 4 5 4 5 4 2 2 2 3 3 2 2 2 3 3 4 6 6 8
Wind_Direction
31 69 139 222 211 183 163 190 253 272 312 311 271 278 288 296 282 274 276 276 274 271 275 266 242 219 199 197 197 200 204 207 189 180 186 193 208 208 210 206 201 199 193 191
53 317 238 169 150 129 144 193 271 298 344 309 298 287 283 280 261 255 264 270 269 279 302 295 240 204 196 203 204 206 214 207 198 192 182 190 194 204 203 201 201 197 187 190
155 223 169 127 115 124 225 202 230 276 325 338 328 304 296 299 299 290 274 273 277 264 276 288 258 227 213 218 218 219 217 208 201 187 151 132 132 145 191 207 212 206 190 189
165 300 116 114 154 148 243 230 203 263 346 314 20 302 297 305 315 307 294 295 292 287 276 273 259 254 242 246 246 234 221 210 198 178 174 180 197 220 224 211 215 219 194 191
228 175 124 167 215 166 198 100 114 91 175 316 344 243 285 325 304 299 299 292 294 297 283 273 255 243 250 246 237 222 218 214 200 191 190 196 221 233 231 212 220 227 207 196
221 240 180 184 97 137 131 74 58 51 60 292 232 196 278 263 251 290 312 317 315 317 319 317 328 358 351 10 358 232 199 229 207 202 203 202 219 229 228 228 222 224 214 205
325 280 281 117 94 53 90 88 22 355 356 258 233 220 252 256 250 256 285 303 315 312 319 324 344 345 346 3 1 344 275 259 233 214 221 218 218 219 225 227 221 217 219 221
190 274 218 177 159 165 185 147 158 207 246 282 282 240 255 264 276 268 271 281 304 314 308 306 284 280 293 305 323 325 299 288 279 244 245 240 230 223 229 226 222 219 221 221
182 241 42 136 138 144 147 189 160 134 56 292 274 280 295 280 286 281 286 302 302 310 305 282 292 290 283 286 270 246 253 278 280 264 266 262 246 236 234 224 220 222 219 211
163 209 264 321 82 14 147 150 118 134 172 271 288 272 253 262 262 285 293 288 300 319 325 315 296 293 297 295 297 291 245 254 269 264 251 266 259 244 235 215 222 228 222 206
157 167 272 125 194 189 147 154 151 143 169 183 272 272 225 221 221 233 259 276 295 316 317 314 315 311 321 335 333 321 301 295 299 292 278 266 263 248 232 233 234 231 229 214
163 137 229 239 217 192 189 186 164 173 224 206 229 268 252 220 229 223 248 279 309 320 320 328 336 343 350 339 332 320 304 295 288 282 261 250 251 230 228 242 246 238 230 223
151 141 94 334 310 239 233 212 191 158 142 182 207 262 289 211 258 247 250 281 310 329 335 339 343 340 334 329 330 325 312 302 306 293 256 257 258 243 244 250 250 246 239 237
134 169 189 210 224 182 210 211 186 166 191 219 228 253 274 271 273 282 286 292 305 311 315 321 319 314 313 313 316 319 314 311 310 297 265 256 258 254 254 259 258 252 243 243
137 214 238 255 259 216 226 219 200 206 212 216 238 241 260 259 250 257 269 289 309 313 314 311 308 308 310 312 317 315 308 314 305 278 265 262 268 264 258 264 268 263 253 248
154 206 252 278 249 249 259 241 220 227 231 239 258 266 265 267 265 262 266 272 282 288 294 300 302 307 310 311 312 309 305 308 311 279 271 285 291 281 270 268 274 273 262 256
174 163 187 264 293 322 266 231 206 213 214 207 230 246 280 280 257 243 247 255 263 274 283 291 294 295 297 299 301 298 295 304 308 298 304 310 309 300 287 277 270 267 263 259
167 167 184 249 16 245 245 181 190 207 229 216 239 257 257 258 262 254 248 248 261 270 278 286 293 299 303 308 306 302 310 313 301 300 304 310 313 308 308 287 268 267 264 257
188 168 165 177 241 272 288 238 182 196 253 220 227 252 269 297 304 280 258 242 252 263 272 280 292 297 306 308 308 314 324 321 309 300 297 298 294 293 294 289 283 279 273 268
148 156 158 175 211 244 253 237 186 144 272 237 208 235 239 116 255 272 300 280 280 295 300 304 314 315 311 310 316 314 310 314 298 292 292 294 285 277 274 279 285 290 281 273
170 188 197 202 228 258 256 209 128 176 248 242 197 217 187 201 226 262 305 301 297 299 300 315 317 307 303 315 324 296 299 289 290 298 301 296 285 276 275 287 293 294 291 290
182 180 195 177 215 251 204 144 186 218 260 207 213 216 219 238 267 286 289 289 296 303 308 312 307 303 312 324 317 289 284 290 304 308 302 295 293 292 297 302 304 301 289 286
206 196 189 195 216 243 169 194 219 245 251 252 239 248 240 251 263 274 279 279 287 289 294 300 294 302 314 320 293 274 290 309 316 308 293 295 303 305 304 294 296 299 285 279
236 220 205 242 255 242 228 243 258 245 245 257 255 258 237 246 257 264 267 275 280 285 289 298 294 295 302 310 294 278 300 311 294 285 289 298 302 307 307 298 284 276 272 271
215 176 207 250 269 290 260 232 243 253 258 265 268 254 247 246 255 254 261 266 270 282 289 282 273 279 289 301 294 292 303 297 281 281 290 297 293 292 294 288 274 274 266 267
190 184 192 229 229 223 255 267 243 245 255 255 262 275 263 240 251 257 260 264 267 273 280 281 279 280 287 296 291 292 284 259 262 279 282 280 282 284 285 292 299 291 290 298